Retour au catalogue

STARLINK-31565

ActifCommunicationsVLEO
NORAD 59323·PAYLOAD·🇺🇸 United States

Lancé Mar 25, 2024 depuis Cape Canaveral Space Force Station

Loading…

Prochains Passages (prochaines 24 heures)

TLE

FraisSource: CelesTrak SupGP

Époque: Sep 14, 2026, 14:44 UTC

1 59323C 24057D   26257.61437500 -.00016752  00000+0 -60694-3 0  2575
2 59323  43.0000 207.7868 0001282 267.5016 109.9092 15.27577079    10

Suivez STARLINK-31565 en temps réel avec AllMySat

Download on the App Store